Weather History for Belgrade Nikola Tesla, Serbia

Change the Weather History Date:

Monday, January 30, 2012

  Actual Average Record
Temperature  
Mean Temperature 16 °F -  
Max Temperature 24 °F 43 °F 62 °F (2002)
Min Temperature 9 °F 28 °F 10 °F (2012)
Degree Days  
Heating Degree Days 48    
Moisture  
Dew Point 6 °F    
Average Humidity 61    
Maximum Humidity 73    
Minimum Humidity 36    
Precipitation  
Precipitation 0.00 in - - ()
Sea Level Pressure  
Sea Level Pressure 30.46 in    
Wind  
Wind Speed 10 mph ()    
Max Wind Speed 18 mph    
Max Gust Speed -    
Visibility 10.6 miles    
Events      
Averages and records for this station are not official NWS values.
T = Trace of Precipitation, MM = Missing Value Source: Averaged Metar Reports

Daily Weather History Graph

Daily Weather History Graph

Search for Another Location

Airport:

Trip Planner

Search our weather history database for the weather conditions in past years. The results will help you decide how hot, cold, wet, or windy it might be!

Date:

Astronomy

Jan. 30, 2012 Rise Set
Actual Time 7:01 AM CET 4:43 PM CET
Civil Twilight 6:29 AM CET 5:14 PM CET
Nautical Twilight 5:54 AM CET 5:49 PM CET
Astronomical Twilight 5:20 AM CET 6:24 PM CET
Moon 9:52 AM CET (1/30) No Moon Set
Length of Visible Light 10h 44m
Length of Day
9h 42m
Waxing Crescent, 43% of the Moon is Illuminated
Jan 30
Waxing Crescent
Jan 31
First Quarter
Feb 7
Full
Feb 14
Last Quarter
Feb 21
New

Hourly Weather History & Observations

Time (CET) Temp. Windchill Dew Point Humidity Pressure Visibility Wind Dir Wind Speed Gust Speed Precip Events Conditions
12:00 AM 14.0 °F 1.2 °F 3.2 °F 62% 30.45 in - ESE 10.4 mph - N/A   Clear
12:30 AM 15.8 °F 2.7 °F 3.2 °F 58% 30.45 in - ESE 11.5 mph - N/A   Clear
1:00 AM 16 °F - 3 °F 42% 30.48 in 12 mi ESE 8.9 mph - -  
1:00 AM 15.8 °F 2.7 °F 3.2 °F 58% 30.42 in - ESE 11.5 mph - N/A   Clear
1:30 AM 14.0 °F 2.0 °F 3.2 °F 62% 30.45 in - ESE 9.2 mph - N/A   Clear
2:00 AM 15.8 °F 3.4 °F 5.0 °F 62% 30.45 in - ESE 10.4 mph - N/A   Clear
2:30 AM 14.0 °F 2.0 °F 3.2 °F 62% 30.45 in - ESE 9.2 mph - N/A   Clear
3:00 AM 14.0 °F 2.9 °F 3.2 °F 62% 30.45 in - ESE 8.1 mph - N/A   Clear
3:30 AM 14.0 °F 6.5 °F 3.2 °F 62% 30.42 in - SE 4.6 mph - N/A   Clear
4:00 AM 13 °F - 4 °F 54% 30.47 in 12 mi SSE 6.7 mph - -  
4:00 AM 12.2 °F 2.9 °F 3.2 °F 67% 30.42 in - SSE 5.8 mph - N/A   Clear
4:30 AM 12.2 °F 4.3 °F 3.2 °F 67% 30.42 in - SE 4.6 mph - N/A   Clear
5:00 AM 12.2 °F 4.3 °F 3.2 °F 67% 30.42 in - SSE 4.6 mph - N/A   Clear
5:30 AM 10.4 °F 0.8 °F 3.2 °F 73% 30.42 in - ESE 5.8 mph - N/A   Clear
6:00 AM 12.2 °F 1.7 °F 3.2 °F 67% 30.45 in - SE 6.9 mph - N/A   Clear
6:30 AM 12.2 °F -0.2 °F 3.2 °F 67% 30.45 in - SE 9.2 mph - N/A   Clear
7:00 AM 12 °F - 3 °F 54% 30.48 in 12 mi SE 8.9 mph - -  
7:00 AM 12.2 °F 0.7 °F 3.2 °F 67% 30.45 in - SE 8.1 mph - N/A   Clear
7:30 AM 15.8 °F 2.7 °F 5.0 °F 62% 30.45 in - SE 11.5 mph - N/A   Clear
8:00 AM 15.8 °F 0.9 °F 6.8 °F 68% 30.45 in - ESE 15.0 mph - N/A   Clear
8:30 AM 17.6 °F 2.2 °F 6.8 °F 63% 30.45 in - ESE 17.3 mph - N/A   Clear
9:00 AM 17.6 °F 5.0 °F 8.6 °F 68% 30.45 in - ESE 11.5 mph - N/A   Clear
9:30 AM 19.4 °F 7.2 °F 8.6 °F 63% 30.45 in 5.0 mi SE 11.5 mph - N/A   Unknown
10:00 AM 20 °F - 9 °F 48% 30.50 in 6 mi SE 13.4 mph - -  
10:00 AM 19.4 °F 5.5 °F 8.6 °F 63% 30.45 in - SE 15.0 mph - N/A   Clear
10:30 AM 21.2 °F 8.9 °F 8.6 °F 58% 30.48 in - ESE 12.7 mph - N/A   Clear
11:00 AM 21.2 °F 9.5 °F 10.4 °F 63% 30.48 in - SE 11.5 mph - N/A   Clear
11:30 AM 21.2 °F 9.5 °F 8.6 °F 58% 30.48 in - SSE 11.5 mph - N/A   Clear
12:00 PM 23.0 °F 12.4 °F 8.6 °F 54% 30.45 in - SE 10.4 mph - N/A   Clear
12:30 PM 23.0 °F 9.6 °F 8.6 °F 54% 30.45 in - SE 16.1 mph - N/A   Clear
1:00 PM 24 °F - 8 °F 36% 30.49 in 12 mi SE 17.9 mph - -  
1:00 PM 23.0 °F 9.6 °F 8.6 °F 54% 30.45 in - SE 16.1 mph - N/A   Clear
1:30 PM 24.8 °F 12.9 °F 8.6 °F 50% 30.45 in - SE 13.8 mph - N/A   Clear
2:00 PM 24.8 °F 14.0 °F 10.4 °F 54% 30.45 in - ESE 11.5 mph - N/A   Clear
2:30 PM 23.0 °F 11.7 °F 10.4 °F 59% 30.45 in - ESE 11.5 mph - N/A   Clear
3:00 PM 23.0 °F 11.7 °F 10.4 °F 59% 30.45 in - ESE 11.5 mph - N/A   Clear
3:30 PM 23.0 °F 11.7 °F 10.4 °F 59% 30.45 in - ESE 11.5 mph - N/A   Clear
4:00 PM 21 °F - 10 °F 49% 30.49 in 12 mi ESE 11.2 mph - -  
4:00 PM 21.2 °F 9.5 °F 10.4 °F 63% 30.45 in - ESE 11.5 mph - N/A   Clear
4:30 PM 19.4 °F 6.6 °F 8.6 °F 63% 30.45 in - ESE 12.7 mph - N/A   Clear
5:00 PM 17.6 °F 3.2 °F 6.8 °F 63% 30.45 in - ESE 15.0 mph - N/A   Clear
5:30 PM 17.6 °F 4.3 °F 6.8 °F 63% 30.45 in - ESE 12.7 mph - N/A   Clear
6:00 PM 17.6 °F 3.2 °F 6.8 °F 63% 30.48 in - ESE 15.0 mph - N/A   Clear
6:30 PM 15.8 °F 2.1 °F 6.8 °F 68% 30.48 in - ESE 12.7 mph - N/A   Clear
7:00 PM 17 °F - 6 °F 49% 30.51 in 12 mi ESE 13.4 mph - -  
7:00 PM 15.8 °F 2.1 °F 5.0 °F 62% 30.48 in - ESE 12.7 mph - N/A   Clear
7:30 PM 15.8 °F 2.1 °F 5.0 °F 62% 30.48 in - ESE 12.7 mph - N/A   Clear
8:00 PM 15.8 °F 1.4 °F 5.0 °F 62% 30.48 in - ESE 13.8 mph - N/A   Clear
8:30 PM 14.0 °F -0.2 °F 5.0 °F 67% 30.48 in - ESE 12.7 mph - N/A   Clear
9:00 PM 14.0 °F -1.4 °F 5.0 °F 67% 30.48 in - ESE 15.0 mph - N/A   Clear
9:30 PM 14.0 °F -0.2 °F 3.2 °F 62% 30.48 in - ESE 12.7 mph - N/A   Clear
10:00 PM 13 °F - 4 °F 54% 30.52 in 12 mi ESE 6.7 mph - -  
10:00 PM 12.2 °F -0.2 °F 3.2 °F 67% 30.48 in - ESE 9.2 mph - N/A   Clear
10:30 PM 12.2 °F -1.8 °F 3.2 °F 67% 30.48 in - ESE 11.5 mph - N/A   Clear
11:00 PM 12.2 °F -3.1 °F 3.2 °F 67% 30.45 in - ESE 13.8 mph - N/A   Clear
11:30 PM 12.2 °F 0.7 °F 3.2 °F 67% 30.48 in - SE 8.1 mph - N/A   Clear